Weather History for Charlottetown, PE

Change the Weather History Date:

Wednesday, January 30, 2013

  Actual Average Record
Temperature  
Mean Temperature 26 °F -  
Max Temperature 44 °F 26 °F 44 °F (2013)
Min Temperature 12 °F 10 °F -7 °F (1997)
Degree Days  
Heating Degree Days 38    
Moisture  
Dew Point 27 °F    
Average Humidity 92    
Maximum Humidity 100    
Minimum Humidity 78    
Precipitation  
Precipitation 0.08 in 0.12 in - ()
Sea Level Pressure  
Sea Level Pressure 29.95 in    
Wind  
Wind Speed 13 mph ()    
Max Wind Speed 30 mph    
Max Gust Speed 39 mph    
Visibility 13.8 miles    
Events Rain    
Averages and records for this station are not official NWS values.
T = Trace of Precipitation, MM = Missing Value Source: Averaged Metar Reports

Daily Weather History Graph

Daily Weather History Graph

Search for Another Location

Airport:

Trip Planner

Search our weather history database for the weather conditions in past years. The results will help you decide how hot, cold, wet, or windy it might be!

Date:

Astronomy

Jan. 30, 2013 Rise Set
Actual Time 7:37 AM AST 5:14 PM AST
Civil Twilight 7:05 AM AST 5:46 PM AST
Nautical Twilight 6:29 AM AST 6:23 PM AST
Astronomical Twilight 5:54 AM AST 6:58 PM AST
Moon 9:25 PM AST (1/30) 8:48 AM AST (1/30)
Length of Visible Light 10h 41m
Length of Day
9h 36m
Waning Gibbous, 88% of the Moon is Illuminated
Jan 30
Waning Gibbous
Feb 3
Last Quarter
Feb 10
New
Feb 17
First Quarter
Feb 25
Full

Hourly Weather History & Observations

Time (AST) Temp. Windchill Dew Point Humidity Pressure Visibility Wind Dir Wind Speed Gust Speed Precip Events Conditions
12:00 AM 15.8 °F - 14.0 °F 93% 30.27 in 15.0 mi Calm Calm - N/A   Mostly Cloudy
1:00 AM 17.6 °F 9.3 °F 14.0 °F 86% 30.26 in 15.0 mi South 5.8 mph - N/A   Mostly Cloudy
2:00 AM 18 °F - 15 °F 82% 30.27 in 15 mi South 5.8 mph - -   Mostly Cloudy
2:00 AM 17.6 °F 8.2 °F 15.8 °F 93% 30.26 in 15.0 mi South 6.9 mph - N/A   Mostly Cloudy
3:00 AM 19.4 °F 9.5 °F 15.8 °F 86% 30.26 in 15.0 mi South 8.1 mph - N/A   Partly Cloudy
4:00 AM 19.4 °F 8.6 °F 17.6 °F 93% 30.25 in 15.0 mi South 9.2 mph - N/A   Overcast
5:00 AM 19.4 °F 8.6 °F 15.8 °F 86% 30.22 in 15.0 mi SE 9.2 mph - N/A   Overcast
6:00 AM 19.4 °F 7.9 °F 15.8 °F 86% 30.22 in 15.0 mi South 10.4 mph - N/A   Mostly Cloudy
7:00 AM 19.4 °F 5.5 °F 15.8 °F 86% 30.17 in 15.0 mi SSE 15.0 mph - N/A   Mostly Cloudy
8:00 AM 21 °F - 17 °F 78% 30.17 in 15 mi SSE 12.7 mph - -   Mostly Cloudy
8:00 AM 21.2 °F 8.9 °F 17.6 °F 86% 30.17 in 15.0 mi SSE 12.7 mph - N/A   Mostly Cloudy
9:00 AM 23.0 °F 9.2 °F 19.4 °F 86% 30.14 in 15.0 mi SSE 17.3 mph - N/A   Overcast
10:00 AM 24.8 °F 10.0 °F 21.2 °F 86% 30.09 in 15.0 mi SSE 21.9 mph - N/A   Overcast
11:00 AM 26.6 °F 12.4 °F 23.0 °F 86% 30.06 in 15.0 mi SSE 21.9 mph - N/A   Overcast
11:15 AM 28.4 °F 15.4 °F 23.0 °F 80% 30.04 in 10.0 mi SSE 19.6 mph 27.6 mph N/A Rain Light Freezing Rain
12:00 PM 30.2 °F 18.1 °F 26.6 °F 86% 29.99 in 10.0 mi South 18.4 mph 26.5 mph N/A Rain Light Freezing Rain
1:00 PM 30.2 °F 16.8 °F 28.4 °F 93% 29.93 in 15.0 mi South 23.0 mph - N/A Rain Light Freezing Rain
2:00 PM 32 °F - 31 °F 96% 29.88 in 7 mi South 21.9 mph - - Rain Light Rain
2:00 PM 32.0 °F 19.2 °F 32.0 °F 100% 29.87 in 8.0 mi South 23.0 mph - N/A Rain Light Rain
2:43 PM 33.8 °F 21.3 °F 32.0 °F 93% 29.83 in 15.0 mi South 24.2 mph 38.0 mph N/A   Mostly Cloudy
3:00 PM 33.8 °F 21.0 °F 32.0 °F 93% 29.81 in 15.0 mi South 25.3 mph 33.4 mph N/A   Overcast
3:52 PM 33.8 °F 20.8 °F 33.8 °F 100% 29.77 in 15.0 mi South 26.5 mph 38.0 mph N/A Rain Light Rain Showers
4:00 PM 35.6 °F 23.0 °F 33.8 °F 93% 29.77 in 15.0 mi South 27.6 mph 36.8 mph N/A Rain Light Rain Showers
5:00 PM 35.6 °F 22.5 °F 35.6 °F 100% 29.74 in 10.0 mi South 29.9 mph 39.1 mph N/A Rain Light Rain Showers
6:00 PM 37.4 °F 25.6 °F 37.4 °F 100% 29.70 in 15.0 mi South 26.5 mph 38.0 mph N/A Rain Light Rain Showers
7:00 PM 39.2 °F 28.5 °F 39.2 °F 100% 29.67 in 15.0 mi South 24.2 mph 31.1 mph N/A Rain Light Rain Showers
8:00 PM 41 °F - 40 °F 97% 29.64 in 15 mi South 20.7 mph - -   Partly Cloudy
8:00 PM 41.0 °F 31.6 °F 41.0 °F 100% 29.64 in 15.0 mi South 20.7 mph 28.8 mph N/A   Overcast
9:00 PM 41.0 °F 31.4 °F 41.0 °F 100% 29.60 in 15.0 mi South 21.9 mph 28.8 mph N/A   Overcast
9:34 PM 41.0 °F 32.5 °F 41.0 °F 100% 29.58 in 6.0 mi South 17.3 mph 24.2 mph N/A   Overcast
10:00 PM 41.0 °F 32.2 °F 41.0 °F 100% 29.55 in 15.0 mi South 18.4 mph - N/A   Overcast
11:00 PM 44.6 °F 36.1 °F 44.6 °F 100% 29.53 in 15.0 mi South 21.9 mph 31.1 mph N/A   Overcast